SCP
0 0 0 0 0 0 0 0 0 0 0 0 0 0 0 0 0 0 0 0 0 0 0 0 0 0 0 0 0 0 0 0 0 0 0 0 0 0 0 0 0 0 0
0 0 0 0 0 0 0 0 0 0 0 0 0 0 0 0 0 0 0 0 0 0 0 0 0 0 0 0 0 0 0 0 0 0 0 0 0 0 0 0 0 0 0
0 0 0 0 0 0 0 0 0 0 0 0 0 0 0 0 0 0 0 0 0 0 0 0 0 0 0 0 0 0 0 0 0 0 0 0 0 0 0 0 0 0 0
0 0 0 0 0 0 0 0 0 0 0 0 0 0 0 0 0 0 0 0 0 0 0 0 0 0 0 0 0 0 0 0 0 0 0 0 0 0 0 0 0 0 0
0 0 0 0 0 0 0 0 0 0 0 0 0 0 0 0 0 0 0 0 0 0 0 0 0 0 0 0 0 0 0 0 0 0 0 0 0 0 0 0 0 0 0
0 0 0 0 0 0 0 0 0 0 0 0 0 0 0 0 0 0 0 0 0 0 0 0 0 0 0 0 0 0 0 0 0 0 0 0 0 0 0 0 0 0 0
0 0 0 0 0 0 0 0 0 0 0 0 0 0 0 0 0 0 0 0 0 0 0 0 0 0 0 0 0 0 0 0 0 0 0 0 0 0 0 0 0 0 0
0 0 0 0 0 0 0 0 0 0 0 0 0 0 0 0 0 0 0 0 0 0 0 0 0 0 0 0 0 0 0 0 0 0 0 0 0 0 0 0 0 0 0
0 0 0 0 0 0 0 0 0 0 0 0 0 0 0 0 0 0 0 0 0 0 0 0 0 0 0 0 0 0 0 0 0 0 0 0 0 0 0 0 0 0 0
0 0 0 0 0 0 0 0 0 0 0 0 0 0 0 0 0 0 0 0 0 0 0 0 0 0 0 0 0 0 0 0 0 0 0 0 0 0 0 0 0 0 0
0 0 0 0 0 0 0 0 0 0 0 0 0 0 0 0 0 0 0 0 0 0 0 0 0 0 0 0 0 0 0 0 0 0 0 0 0 0 0 0 0 0 0
0 0 0 0 0 0 0 0 0 0 0 0 0 0 0 0 0 0 0 0 0 0 0 0 0 0 0 0 0 0 0 0 0 0 0 0 0 0 0 0 0 0 0
-0 0 0 0 0 0 0 0 0 0 0 0 0 0 0 0 0 0 0 0 0 0 0 0 0 0 0 0 0 0 0 0 0 0 0 0 0 0 0 0 0 0 0
0 0 0 0 0 0 0 0 0 0 0 0 0 0 0 0 0 0 0 0 0 0 0 0 0 0 0 0 0 0 0 0 0 0 0 0 0 0 0 0 0 0 0
0 0 0 0 0 0 0 0 0 0 0 0 0 0 0 0 0 0 0 0 0 0 0 0 0 0 0 0 0 0 0 0 0 0 0 0 0 0 0 0 0 0 0
0 0 0 0 0 0 0 0 0 0 0 0 0 0 0 0 0 0 0 0 0 0 0 0 0 0 0 0 0 0 0 0 0 0 0 0 0 0 0 0 0 0 0
0 0 0 0 0 0 0 0 0 0 0 0 0 0 0 0 0 0 0 0 0 0 0 0 0 0 0 0 0 0 0 0 0 0 0 0 0 0 0 0 0 0 0
0 0 0 0 0 0 0 0 0 0 0 0 0 0 0 0 0 0 0 0 0 0 0 0 0 0 0 0 0 0 0 0 0 0 0 0 0 0 0 0 0 0 0
0 0 0 0 0 0 0 0 0 0 0 0 0 0 0 0 0 0 0 0 0 0 0 0 0 0 0 0 0 0 0 0 0 0 0 0 0 0 0 0 0 0 0
0 0 0 0 0 0 0 0 0 0 0 0 0 0 0 0 0 0 0 0 0 0 0 0 0 0 0 0 0 0 0 0 0 0 0 0 0 0 0 0 0 0 0
0 0 0 0 0 0 0 0 0 0 0 0 0 0 0 0 0 0 0 0 0 0 0 0 0 0 0 0 0 0 0 0 0 0 0 0 0 0 0 0 0 0 0
0 0 0 0 0 0 0 0 0 0 0 0 0 0 0 0 0 0 0 0 0 0 0 0 0 0 0 0 0 0 0 0 0 0 0 0 0 0 0 0 0 0 0
0 0 0 0 0 0 0 0 0 0 0 0 0 0 0 0 0 0 0 0 0 0 0 0 0 0 0 0 0 0 0 0 0 0 0 0 0 0 0 0 0 0 0
0 0 0 0 0 0 0 0 0 0 0 0 0 0 0 0 0 0 0 0 0 0 0 0 0 0 0 0 0 0 0 0 0 0 0 0 0 0 0 0 0 0 0
0 0 0 0 0 0 0 0 0 0 0 0 0 0 0 0 0 0 0 0 0 0 0 0 0 0 0 0 0 0 0 0 0 0 0 0 0 0 0 0 0 0 0
0 0 0 0 0 0 0 0 0 0 0 0 0 0 0 0 0 0 0 0 0 0 0 0 0 0 0 0 0 0 0 0 0 0 0 0 0 0 0 0 0 0 0
Wind_Speed
4 4 4 5 5 4 4 4 4 2 2 2 2 2 2 2 2 1 1 1 1 1 1 1 1 1 1 3 3 2 3 3 2 2 2 3 5 6 6 6 6 8 9
3 3 3 3 3 3 3 3 3 2 2 1 1 1 0 0 1 1 2 2 2 2 2 1 2 2 2 2 3 2 2 2 2 2 1 2 3 4 7 6 7 8 6
4 3 3 3 3 3 3 3 3 2 2 1 1 2 2 2 2 2 2 3 3 3 2 2 2 2 1 2 3 2 2 2 2 3 3 3 3 2 2 5 6 6 6
3 4 5 4 4 4 3 3 3 2 2 2 2 2 1 1 2 2 2 3 3 3 2 2 2 2 1 2 2 2 2 1 1 1 2 3 2 2 2 2 2 5 6
5 5 5 5 3 3 3 3 2 2 2 2 2 2 1 2 2 2 3 3 3 4 3 2 2 2 2 3 2 2 2 2 2 1 1 1 2 2 2 2 2 2 3
3 3 2 2 2 2 2 2 2 1 1 1 1 2 3 3 3 3 3 3 3 3 4 3 3 3 2 3 3 3 3 2 2 2 1 1 1 2 2 3 2 3 3
2 2 2 2 2 2 1 1 1 2 2 2 2 2 3 3 3 4 4 3 3 3 4 4 3 3 3 4 3 2 3 3 2 3 2 2 2 1 2 2 2 2 2
2 2 2 2 1 1 1 0 0 2 2 2 3 2 2 2 2 4 4 4 3 4 4 4 4 4 4 4 3 2 3 3 3 4 3 2 2 2 1 2 1 1 2
2 2 2 2 1 1 0 0 0 2 3 3 3 3 3 3 4 4 4 3 4 4 4 4 4 5 5 5 4 3 4 3 4 4 4 3 3 2 2 2 2 2 2
2 2 1 1 1 0 0 1 1 2 3 3 4 3 3 4 4 3 4 4 5 4 4 5 5 5 5 5 4 4 5 5 4 4 4 4 3 3 2 2 2 3 3
3 2 1 0 1 1 1 2 2 3 3 4 3 4 4 4 4 4 5 5 5 5 5 6 6 6 6 6 5 6 6 6 6 5 5 6 4 3 3 3 2 3 3
3 3 2 1 2 2 2 2 3 3 3 3 3 4 4 5 5 5 6 6 6 6 6 6 6 6 6 6 6 7 6 6 7 7 6 6 5 5 4 3 4 3 3
3 2 1 1 2 2 3 3 3 3 4 3 3 4 5 5 5 6 6 6 6 6 6 6 6 7 7 6 7 7 7 7 7 7 7 7 6 6 5 5 4 4 4
3 1 1 2 3 3 3 3 4 4 4 4 4 5 6 6 6 6 6 6 6 6 7 7 7 7 7 7 7 7 8 8 7 7 8 8 8 8 7 6 6 5 4
2 0 1 3 3 3 3 3 4 5 4 4 5 6 6 6 6 6 7 7 6 7 7 7 7 7 7 7 7 7 8 7 7 7 7 8 10 11 8 6 6 6 5
1 1 2 3 3 3 3 4 4 5 5 5 6 6 6 6 7 7 7 7 7 7 7 7 7 8 8 10 12 9 7 6 7 7 7 7 8 11 12 12 12 11 8
1 2 2 3 3 4 3 4 5 5 5 6 6 6 6 7 7 8 7 7 7 7 7 8 7 8 10 14 14 14 8 7 7 8 7 7 7 8 6 9 11 11 12
1 2 2 3 4 3 3 4 4 5 5 6 7 7 7 8 8 8 8 8 7 7 7 8 8 8 10 13 14 14 9 7 8 8 9 8 7 7 7 6 5 6 7
2 3 3 3 3 4 4 4 5 5 6 7 7 8 8 8 9 9 9 8 7 7 7 7 8 9 10 13 13 12 6 6 8 8 8 8 7 10 11 7 6 5 5
2 2 2 2 4 4 4 4 5 6 7 8 8 8 8 8 9 9 9 7 6 7 7 8 7 8 9 10 11 10 5 6 6 5 6 10 10 10 11 8 7 7 6
2 2 2 3 4 4 3 4 6 6 7 8 8 8 8 8 8 7 6 7 7 7 7 8 7 6 7 8 9 8 5 5 5 4 4 5 10 11 12 10 7 9 7
2 2 2 4 5 4 3 5 6 7 7 7 8 9 9 8 8 7 7 7 6 6 7 6 7 5 5 5 6 7 7 6 5 4 4 5 8 8 10 9 9 11 8
2 2 3 4 5 4 3 5 6 6 7 8 9 9 9 8 7 7 7 7 5 5 5 5 5 5 4 4 5 6 6 6 4 4 6 7 7 6 6 9 10 9 5
3 2 3 4 5 5 4 5 6 6 6 8 9 8 8 9 8 6 5 5 5 5 5 5 5 5 4 3 3 2 2 4 3 3 4 5 5 4 4 4 5 5 5
3 2 2 4 5 5 5 5 5 5 6 8 8 8 7 8 8 7 6 6 6 6 6 5 4 4 4 5 5 3 2 2 2 2 1 1 2 2 2 2 3 4 4
2 2 3 4 4 4 5 5 5 5 6 7 8 7 7 7 6 7 8 8 8 10 10 9 7 5 6 7 6 5 4 3 3 3 2 3 3 4 4 4 4 4 5
Wind_Direction
86 87 93 96 93 86 85 88 91 79 71 57 51 39 14 0 6 358 323 305 304 296 279 273 290 283 265 268 265 253 259 249 218 218 267 264 236 227 223 216 210 212 209
109 112 121 117 120 128 125 125 124 113 103 107 118 136 151 305 313 335 340 318 306 296 289 260 247 246 258 273 273 255 250 251 206 186 201 265 280 248 230 216 212 211 204
163 162 160 170 169 172 174 161 161 147 140 123 84 51 31 5 355 338 319 302 290 286 286 263 247 245 234 252 247 228 222 241 246 199 185 191 226 265 257 222 214 202 198
172 186 190 186 186 191 178 163 164 167 165 139 117 125 140 238 258 263 277 295 294 292 278 262 251 251 239 240 246 213 205 213 265 251 216 211 191 200 290 291 235 209 207
198 194 197 190 190 176 156 161 166 192 199 168 158 156 201 231 261 281 297 301 299 294 286 263 251 248 239 234 237 244 226 209 219 226 219 248 239 202 201 260 273 252 229
209 192 180 129 123 124 132 151 158 224 243 216 207 200 224 247 271 284 290 291 290 291 294 269 247 244 241 235 231 229 234 231 224 230 216 201 224 216 204 226 235 237 244
204 171 135 133 149 143 162 174 176 255 272 268 262 253 248 251 257 265 264 270 275 274 276 270 248 245 245 243 233 227 233 226 222 224 224 212 224 230 206 209 236 245 262
193 150 148 147 148 144 151 162 225 278 290 285 281 276 268 257 259 260 259 258 256 259 266 267 255 250 246 247 237 230 233 225 222 229 218 215 223 221 206 200 196 248 271
160 141 129 132 141 110 71 180 245 282 282 275 275 274 274 267 265 269 266 263 262 270 276 271 263 260 252 245 234 234 239 232 226 226 226 215 216 212 213 209 197 200 231
146 137 128 121 99 79 341 357 328 287 289 296 291 300 292 283 276 278 277 270 268 271 279 277 270 263 255 247 237 236 237 234 236 222 219 229 226 215 208 208 211 207 216
147 146 146 100 43 22 8 349 327 316 312 310 303 308 301 296 294 287 280 276 272 272 268 265 263 260 256 251 242 238 234 230 237 237 223 224 222 219 212 203 207 212 209
136 130 116 64 32 1 337 325 312 310 303 303 308 306 302 301 296 289 284 281 278 274 269 267 264 261 259 248 241 244 244 230 229 231 226 229 223 217 214 205 209 215 214
109 91 47 14 330 311 305 305 307 300 300 305 309 307 303 300 293 289 288 286 281 279 276 269 263 260 258 249 241 240 243 236 229 224 218 221 217 218 213 207 210 214 221
120 108 349 299 292 294 299 306 305 300 304 303 303 299 293 288 285 284 284 281 277 277 275 269 263 259 257 253 247 241 241 241 237 228 221 216 209 213 210 208 207 206 208
108 135 261 277 291 301 304 302 300 301 301 301 299 291 287 286 286 287 286 283 279 281 272 269 267 262 259 255 246 238 242 237 240 239 230 224 219 215 210 209 199 195 198
195 258 287 300 302 297 293 299 299 300 300 299 295 293 293 293 291 289 286 285 282 278 274 269 265 263 268 268 261 245 238 231 230 236 237 238 232 223 219 218 206 193 191
227 279 293 289 284 280 281 288 292 300 307 302 299 301 297 295 292 296 298 289 284 278 277 272 266 263 262 262 260 252 238 226 225 228 228 236 232 213 210 219 216 208 204
239 278 282 281 277 277 285 290 303 309 307 305 302 302 300 298 296 294 290 286 281 278 276 274 269 265 267 264 257 253 243 231 227 225 222 219 226 220 202 203 206 209 212
212 234 246 256 279 290 295 305 311 310 307 304 302 302 302 302 302 298 292 287 284 284 279 276 272 267 269 264 258 249 234 230 230 227 224 214 215 220 207 195 197 208 227
220 244 269 289 301 292 298 311 309 311 306 301 300 302 301 301 299 294 290 288 285 283 286 286 279 271 270 268 261 245 223 225 229 231 228 221 216 213 207 196 191 199 213
243 265 300 303 291 291 307 312 308 304 298 301 304 305 303 300 294 291 289 292 292 293 294 293 289 282 276 276 267 245 219 217 220 225 223 221 219 215 210 199 192 202 194
284 298 306 301 298 303 312 308 301 295 301 307 309 308 307 305 309 301 297 296 295 299 301 300 301 293 289 284 272 252 231 216 211 223 223 218 215 215 209 203 202 199 188
283 285 290 303 307 305 303 301 295 303 312 315 313 311 310 305 302 299 299 301 298 296 296 299 299 299 297 296 287 268 249 235 220 220 217 206 205 208 206 207 201 189 180
274 283 302 311 305 301 301 288 294 308 315 314 312 311 311 310 308 303 295 291 291 293 294 296 296 297 300 302 306 292 263 248 230 217 213 198 192 190 195 191 192 184 181
261 266 279 288 291 296 301 299 304 314 316 312 310 311 307 305 307 305 296 289 274 262 268 277 278 287 293 291 290 279 261 229 207 177 167 164 169 185 192 189 183 183 181
253 269 282 287 292 297 303 306 308 312 314 315 314 310 310 308 307 309 311 296 280 281 273 260 258 266 265 285 295 286 263 240 197 172 188 197 198 200 199 196 194 193 197